Time,TemperatureF,DewpointF,PressureIn,WindDirection,WindDirectionDegrees,WindSpeedMPH,WindSpeedGustMPH,Humidity,HourlyPrecipIn,Conditions,Clouds,dailyrainin,SoftwareType,DateUTC
2013-01-01 00:02:00,-3.0,-19.0,30.22,NW,321,0.0,0.0,45,0.00,,,0.00,,2013-01-01 06:02:00,
2013-01-01 00:12:00,-3.0,-19.0,30.22,NW,321,0.0,0.0,45,0.00,,,0.00,,2013-01-01 06:12:00,
2013-01-01 00:22:00,-4.0,-20.0,30.22,NW,321,0.0,0.0,45,0.00,,,0.00,,2013-01-01 06:22:00,
2013-01-01 00:32:00,-4.0,-20.0,30.22,NW,321,0.0,0.0,45,0.00,,,0.00,,2013-01-01 06:32:00,
2013-01-01 00:42:00,-4.0,-20.0,30.22,NW,321,0.0,0.0,45,0.00,,,0.00,,2013-01-01 06:42:00,
2013-01-01 00:52:00,-4.0,-20.0,30.22,NW,321,0.0,0.0,45,0.00,,,0.00,,2013-01-01 06:52:00,
2013-01-01 01:02:00,-5.0,-21.0,30.22,NW,321,0.0,0.0,45,0.00,,,0.00,,2013-01-01 07:02:00,
2013-01-01 01:12:00,-5.0,-21.0,30.22,NW,321,0.0,0.0,45,0.00,,,0.00,,2013-01-01 07:12:00,
2013-01-01 01:22:00,-5.0,-21.0,30.22,NW,321,0.0,0.0,45,0.00,,,0.00,,2013-01-01 07:22:00,
2013-01-01 01:32:00,-6.0,-22.0,30.22,NW,321,0.0,0.0,45,0.00,,,0.00,,2013-01-01 07:32:00,
2013-01-01 01:42:00,-6.0,-22.0,30.22,NW,321,0.0,0.0,45,0.00,,,0.00,,2013-01-01 07:42:00,
2013-01-01 01:52:00,-7.0,-23.0,30.22,NW,321,0.0,0.0,45,0.00,,,0.00,,2013-01-01 07:52:00,
2013-01-01 02:02:00,-7.0,-23.0,30.22,NW,321,0.0,0.0,45,0.00,,,0.00,,2013-01-01 08:02:00,
2013-01-01 02:11:00,-7.0,-23.0,30.22,NW,321,0.0,0.0,45,0.00,,,0.00,,2013-01-01 08:11:00,
2013-01-01 02:22:00,-7.0,-23.0,30.22,NW,321,0.0,0.0,45,0.00,,,0.00,,2013-01-01 08:22:00,
2013-01-01 02:32:00,-6.0,-22.0,30.22,NW,321,0.0,4.0,45,0.00,,,0.00,,2013-01-01 08:32:00,
2013-01-01 02:42:00,-6.0,-22.0,30.25,NW,321,4.0,4.0,45,0.00,,,0.00,,2013-01-01 08:42:00,
2013-01-01 02:53:00,-6.0,-22.0,30.25,NW,321,4.0,4.0,45,0.00,,,0.00,,2013-01-01 08:53:00,
2013-01-01 03:02:00,-6.0,-22.0,30.25,NW,321,5.0,5.0,45,0.00,,,0.00,,2013-01-01 09:02:00,
2013-01-01 03:12:00,-6.0,-22.0,30.25,NW,321,5.0,5.0,45,0.00,,,0.00,,2013-01-01 09:12:00,
2013-01-01 03:22:00,-6.0,-22.0,30.25,NW,321,4.0,4.0,45,0.00,,,0.00,,2013-01-01 09:22:00,
2013-01-01 03:32:00,-6.0,-22.0,30.25,NW,321,6.0,8.0,45,0.00,,,0.00,,2013-01-01 09:32:00,
2013-01-01 03:42:00,-6.0,-22.0,30.25,NW,321,6.0,8.0,45,0.00,,,0.00,,2013-01-01 09:42:00,
2013-01-01 03:52:00,-7.0,-23.0,30.25,NW,321,3.0,3.0,45,0.00,,,0.00,,2013-01-01 09:52:00,
2013-01-01 04:02:00,-7.0,-23.0,30.25,NW,321,0.0,0.0,45,0.00,,,0.00,,2013-01-01 10:02:00,
2013-01-01 04:12:00,-7.0,-23.0,30.25,NW,321,0.0,0.0,45,0.00,,,0.00,,2013-01-01 10:12:00,
2013-01-01 04:22:00,-7.0,-23.0,30.25,NW,321,0.0,0.0,45,0.00,,,0.00,,2013-01-01 10:22:00,
2013-01-01 04:33:00,-7.0,-23.0,30.25,NW,321,0.0,0.0,45,0.00,,,0.00,,2013-01-01 10:33:00,
2013-01-01 04:42:00,-7.0,-23.0,30.25,NW,321,0.0,0.0,45,0.00,,,0.00,,2013-01-01 10:42:00,
2013-01-01 04:52:00,-7.0,-23.0,30.25,NW,321,0.0,0.0,45,0.00,,,0.00,,2013-01-01 10:52:00,
2013-01-01 05:02:00,-7.0,-23.0,30.25,NW,321,0.0,0.0,45,0.00,,,0.00,,2013-01-01 11:02:00,
2013-01-01 05:12:00,-7.0,-23.0,30.25,NW,321,0.0,0.0,45,0.00,,,0.00,,2013-01-01 11:12:00,
2013-01-01 05:22:00,-8.0,-24.0,30.25,NW,321,0.0,0.0,45,0.00,,,0.00,,2013-01-01 11:22:00,
2013-01-01 05:32:00,-8.0,-24.0,30.25,NW,321,0.0,0.0,45,0.00,,,0.00,,2013-01-01 11:32:00,
2013-01-01 05:42:00,-8.0,-24.0,30.25,NW,321,0.0,0.0,45,0.00,,,0.00,,2013-01-01 11:42:00,
2013-01-01 05:53:00,-8.0,-24.0,30.25,NW,321,0.0,0.0,45,0.00,,,0.00,,2013-01-01 11:53:00,
2013-01-01 06:02:00,-8.0,-24.0,30.25,NW,321,0.0,0.0,45,0.00,,,0.00,,2013-01-01 12:02:00,
2013-01-01 06:12:00,-8.0,-24.0,30.25,NW,321,0.0,0.0,45,0.00,,,0.00,,2013-01-01 12:12:00,
2013-01-01 06:22:00,-8.0,-24.0,30.25,NW,321,0.0,0.0,45,0.00,,,0.00,,2013-01-01 12:22:00,
2013-01-01 06:32:00,-9.0,-25.0,30.25,NW,321,0.0,0.0,45,0.00,,,0.00,,2013-01-01 12:32:00,
2013-01-01 06:42:00,-9.0,-25.0,30.25,NW,321,0.0,0.0,45,0.00,,,0.00,,2013-01-01 12:42:00,
2013-01-01 06:52:00,-9.0,-25.0,30.25,NW,321,0.0,0.0,45,0.00,,,0.00,,2013-01-01 12:52:00,
2013-01-01 07:02:00,-10.0,-25.0,30.25,NW,321,0.0,0.0,45,0.00,,,0.00,,2013-01-01 13:02:00,
2013-01-01 07:12:00,-10.0,-25.0,30.25,NW,321,0.0,0.0,45,0.00,,,0.00,,2013-01-01 13:12:00,
2013-01-01 07:22:00,-10.0,-25.0,30.25,NW,321,0.0,0.0,45,0.00,,,0.00,,2013-01-01 13:22:00,
2013-01-01 07:32:00,-10.0,-25.0,30.25,NW,321,0.0,0.0,45,0.00,,,0.00,,2013-01-01 13:32:00,
2013-01-01 07:42:00,-10.0,-25.0,30.25,NW,321,0.0,0.0,45,0.00,,,0.00,,2013-01-01 13:42:00,
2013-01-01 07:52:00,-11.0,-26.0,30.25,NW,321,0.0,0.0,45,0.00,,,0.00,,2013-01-01 13:52:00,
2013-01-01 08:02:00,-11.0,-26.0,30.25,NW,321,0.0,0.0,45,0.00,,,0.00,,2013-01-01 14:02:00,
2013-01-01 08:12:00,-11.0,-26.0,30.25,NW,321,0.0,0.0,45,0.00,,,0.00,,2013-01-01 14:12:00,
2013-01-01 08:22:00,-11.0,-26.0,30.25,NW,321,0.0,0.0,45,0.00,,,0.00,,2013-01-01 14:22:00,
2013-01-01 08:32:00,-11.0,-26.0,30.25,NW,321,0.0,0.0,45,0.00,,,0.00,,2013-01-01 14:32:00,
2013-01-01 08:42:00,-11.0,-26.0,30.25,NW,321,0.0,0.0,45,0.00,,,0.00,,2013-01-01 14:42:00,
2013-01-01 08:53:00,-11.0,-26.0,30.25,NW,321,0.0,0.0,45,0.00,,,0.00,,2013-01-01 14:53:00,
2013-01-01 09:03:00,-9.0,-25.0,30.25,NW,321,0.0,0.0,45,0.00,,,0.00,,2013-01-01 15:03:00,
2013-01-01 09:12:00,-8.0,-24.0,30.25,NW,321,0.0,0.0,45,0.00,,,0.00,,2013-01-01 15:12:00,
2013-01-01 09:22:00,-8.0,-24.0,30.25,NW,321,0.0,0.0,45,0.00,,,0.00,,2013-01-01 15:22:00,
2013-01-01 09:33:00,-5.0,-21.0,30.25,NW,321,0.0,0.0,45,0.00,,,0.00,,2013-01-01 15:33:00,
2013-01-01 09:42:00,-5.0,-21.0,30.25,NW,321,0.0,0.0,45,0.00,,,0.00,,2013-01-01 15:42:00,
2013-01-01 09:53:00,-4.0,-20.0,30.25,NW,321,0.0,0.0,45,0.00,,,0.00,,2013-01-01 15:53:00,
2013-01-01 10:02:00,-2.0,-18.0,30.25,NW,321,0.0,0.0,45,0.00,,,0.00,,2013-01-01 16:02:00,
2013-01-01 10:12:00,-2.0,-18.0,30.25,NW,321,0.0,0.0,45,0.00,,,0.00,,2013-01-01 16:12:00,
2013-01-01 10:22:00,-1.0,-17.0,30.25,NW,321,0.0,0.0,45,0.00,,,0.00,,2013-01-01 16:22:00,
2013-01-01 10:33:00,1.0,-15.0,30.25,NW,321,0.0,0.0,45,0.00,,,0.00,,2013-01-01 16:33:00,
2013-01-01 10:42:00,1.0,-15.0,30.25,NW,321,0.0,0.0,45,0.00,,,0.00,,2013-01-01 16:42:00,
2013-01-01 10:52:00,4.0,-13.0,30.25,NW,321,0.0,0.0,45,0.00,,,0.00,,2013-01-01 16:52:00,
2013-01-01 11:02:00,9.0,-8.0,30.25,NW,321,0.0,0.0,45,0.00,,,0.00,,2013-01-01 17:02:00,
2013-01-01 11:12:00,9.0,-8.0,30.25,NW,321,0.0,0.0,45,0.00,,,0.00,,2013-01-01 17:12:00,
2013-01-01 11:22:00,11.0,-6.0,30.25,WSW,237,6.0,6.0,45,0.00,,,0.00,,2013-01-01 17:22:00,
2013-01-01 11:33:00,12.0,-5.0,30.25,SW,232,5.0,5.0,45,0.00,,,0.00,,2013-01-01 17:33:00,
2013-01-01 11:42:00,12.0,-5.0,30.25,SW,232,5.0,5.0,45,0.00,,,0.00,,2013-01-01 17:42:00,
2013-01-01 11:52:00,13.0,-4.0,30.22,South,187,6.0,6.0,45,0.00,,,0.00,,2013-01-01 17:52:00,
2013-01-01 12:03:00,13.0,-4.0,30.22,SSW,206,6.0,6.0,45,0.00,,,0.00,,2013-01-01 18:03:00,
2013-01-01 12:12:00,13.0,-4.0,30.22,SSW,206,6.0,6.0,45,0.00,,,0.00,,2013-01-01 18:12:00,
2013-01-01 12:22:00,14.0,-4.0,30.22,South,185,5.0,9.0,44,0.00,,,0.00,,2013-01-01 18:22:00,
2013-01-01 12:33:00,15.0,-3.0,30.22,SW,234,12.0,12.0,44,0.00,,,0.00,,2013-01-01 18:33:00,
2013-01-01 12:42:00,15.0,-3.0,30.22,SW,234,12.0,12.0,44,0.00,,,0.00,,2013-01-01 18:42:00,
2013-01-01 12:52:00,15.0,-3.0,30.22,SW,234,12.0,12.0,44,0.00,,,0.00,,2013-01-01 18:52:00,
2013-01-01 13:02:00,15.0,-3.0,30.22,SW,225,13.0,13.0,44,0.00,,,0.00,,2013-01-01 19:02:00,
2013-01-01 13:12:00,15.0,-3.0,30.22,SW,225,13.0,13.0,44,0.00,,,0.00,,2013-01-01 19:12:00,
2013-01-01 13:22:00,16.0,-2.0,30.22,SW,232,6.0,9.0,43,0.00,,,0.00,,2013-01-01 19:22:00,
2013-01-01 13:32:00,17.0,-2.0,30.19,SSW,206,6.0,10.0,43,0.00,,,0.00,,2013-01-01 19:32:00,
2013-01-01 13:42:00,17.0,-2.0,30.19,SSW,206,6.0,10.0,43,0.00,,,0.00,,2013-01-01 19:42:00,
2013-01-01 13:52:00,17.0,-2.0,30.19,SW,228,5.0,11.0,43,0.00,,,0.00,,2013-01-01 19:52:00,
2013-01-01 14:02:00,17.0,-1.0,30.19,SW,225,9.0,9.0,44,0.00,,,0.00,,2013-01-01 20:02:00,
2013-01-01 14:12:00,17.0,-1.0,30.19,SW,225,9.0,9.0,44,0.00,,,0.00,,2013-01-01 20:12:00,
2013-01-01 14:23:00,16.0,-2.0,30.19,WSW,254,10.0,10.0,44,0.00,,,0.00,,2013-01-01 20:23:00,
2013-01-01 14:32:00,16.0,-2.0,30.19,SW,221,13.0,13.0,44,0.00,,,0.00,,2013-01-01 20:32:00,
2013-01-01 14:42:00,16.0,-2.0,30.19,SW,221,13.0,13.0,44,0.00,,,0.00,,2013-01-01 20:42:00,
2013-01-01 14:52:00,17.0,-1.0,30.19,WSW,253,8.0,8.0,44,0.00,,,0.00,,2013-01-01 20:52:00,
2013-01-01 15:03:00,17.0,-1.0,30.19,SW,223,8.0,8.0,44,0.00,,,0.00,,2013-01-01 21:03:00,
2013-01-01 15:12:00,17.0,-1.0,30.19,SW,223,8.0,8.0,44,0.00,,,0.00,,2013-01-01 21:12:00,
2013-01-01 15:22:00,17.0,-1.0,30.19,SW,223,8.0,8.0,44,0.00,,,0.00,,2013-01-01 21:22:00,
2013-01-01 15:33:00,16.0,-2.0,30.19,SSW,211,9.0,12.0,44,0.00,,,0.00,,2013-01-01 21:33:00,
2013-01-01 15:42:00,16.0,-2.0,30.19,SSW,211,9.0,12.0,44,0.00,,,0.00,,2013-01-01 21:42:00,
2013-01-01 15:53:00,16.0,-2.0,30.19,West,264,9.0,9.0,44,0.00,,,0.00,,2013-01-01 21:53:00,
2013-01-01 16:02:00,15.0,-2.0,30.16,SW,220,4.0,6.0,45,0.00,,,0.00,,2013-01-01 22:02:00,
2013-01-01 16:12:00,15.0,-2.0,30.16,SW,220,4.0,6.0,45,0.00,,,0.00,,2013-01-01 22:12:00,
2013-01-01 16:22:00,15.0,-2.0,30.16,WSW,258,9.0,9.0,45,0.00,,,0.00,,2013-01-01 22:22:00,
2013-01-01 16:33:00,14.0,-3.0,30.16,SW,226,8.0,10.0,46,0.00,,,0.00,,2013-01-01 22:33:00,
2013-01-01 16:42:00,14.0,-3.0,30.16,SW,226,8.0,10.0,46,0.00,,,0.00,,2013-01-01 22:42:00,
2013-01-01 16:52:00,14.0,-3.0,30.16,SW,229,4.0,6.0,46,0.00,,,0.00,,2013-01-01 22:52:00,
2013-01-01 17:02:00,13.0,-4.0,30.16,SW,233,5.0,10.0,46,0.00,,,0.00,,2013-01-01 23:02:00,
2013-01-01 17:12:00,13.0,-4.0,30.16,SW,233,5.0,10.0,46,0.00,,,0.00,,2013-01-01 23:12:00,
2013-01-01 17:22:00,13.0,-4.0,30.16,SW,224,10.0,13.0,46,0.00,,,0.00,,2013-01-01 23:22:00,
2013-01-01 17:32:00,13.0,-4.0,30.16,SW,230,9.0,9.0,46,0.00,,,0.00,,2013-01-01 23:32:00,
2013-01-01 17:42:00,13.0,-4.0,30.16,SW,230,9.0,9.0,46,0.00,,,0.00,,2013-01-01 23:42:00,
2013-01-01 17:52:00,13.0,-4.0,30.16,SW,232,6.0,8.0,46,0.00,,,0.00,,2013-01-01 23:52:00,
2013-01-01 18:02:00,14.0,-3.0,30.16,WSW,238,5.0,9.0,46,0.00,,,0.00,,2013-01-02 00:02:00,
2013-01-01 18:12:00,14.0,-3.0,30.16,WSW,238,5.0,9.0,46,0.00,,,0.00,,2013-01-02 00:12:00,
2013-01-01 18:22:00,14.0,-3.0,30.16,WSW,241,8.0,10.0,46,0.00,,,0.00,,2013-01-02 00:22:00,
2013-01-01 18:32:00,14.0,-3.0,30.16,WSW,238,0.0,8.0,46,0.00,,,0.00,,2013-01-02 00:32:00,
2013-01-01 18:42:00,14.0,-3.0,30.16,WSW,238,0.0,8.0,46,0.00,,,0.00,,2013-01-02 00:42:00,
2013-01-01 18:52:00,14.0,-3.0,30.14,WSW,239,0.0,8.0,46,0.00,,,0.00,,2013-01-02 00:52:00,
2013-01-01 19:02:00,14.0,1.0,30.14,SW,218,0.0,0.0,56,0.00,,,0.00,,2013-01-02 01:02:00,
2013-01-01 19:12:00,14.0,1.0,30.14,SW,218,0.0,0.0,56,0.00,,,0.00,,2013-01-02 01:12:00,
2013-01-01 19:22:00,14.0,1.0,30.14,WSW,257,0.0,0.0,56,0.00,,,0.00,,2013-01-02 01:22:00,
2013-01-01 19:32:00,14.0,1.0,30.14,SW,233,8.0,9.0,56,0.00,,,0.00,,2013-01-02 01:32:00,
2013-01-01 19:42:00,14.0,1.0,30.14,SW,233,8.0,9.0,56,0.00,,,0.00,,2013-01-02 01:42:00,
2013-01-01 19:52:00,14.0,1.0,30.14,West,267,3.0,3.0,56,0.00,,,0.00,,2013-01-02 01:52:00,
2013-01-01 20:02:00,14.0,1.0,30.14,SSW,199,0.0,0.0,56,0.00,,,0.00,,2013-01-02 02:02:00,
2013-01-01 20:12:00,14.0,1.0,30.14,SSW,199,0.0,0.0,56,0.00,,,0.00,,2013-01-02 02:12:00,
2013-01-01 20:22:00,15.0,3.0,30.14,SSW,194,4.0,6.0,58,0.00,,,0.00,,2013-01-02 02:22:00,
2013-01-01 20:32:00,15.0,3.0,30.14,SW,221,0.0,0.0,57,0.00,,,0.00,,2013-01-02 02:32:00,
2013-01-01 20:42:00,15.0,3.0,30.14,SW,221,0.0,0.0,57,0.00,,,0.00,,2013-01-02 02:42:00,
2013-01-01 20:52:00,15.0,3.0,30.14,South,181,0.0,8.0,57,0.00,,,0.00,,2013-01-02 02:52:00,
2013-01-01 21:02:00,15.0,3.0,30.11,SW,231,0.0,0.0,58,0.00,,,0.00,,2013-01-02 03:02:00,
2013-01-01 21:12:00,15.0,3.0,30.11,SW,231,0.0,0.0,58,0.00,,,0.00,,2013-01-02 03:12:00,
2013-01-01 21:22:00,15.0,3.0,30.11,SSW,196,3.0,4.0,58,0.00,,,0.00,,2013-01-02 03:22:00,
2013-01-01 21:32:00,15.0,3.0,30.11,SSW,207,0.0,0.0,59,0.00,,,0.00,,2013-01-02 03:32:00,
2013-01-01 21:42:00,15.0,3.0,30.11,SSW,207,0.0,0.0,59,0.00,,,0.00,,2013-01-02 03:42:00,
2013-01-01 21:52:00,14.0,2.0,30.11,SSW,208,0.0,0.0,59,0.00,,,0.00,,2013-01-02 03:52:00,
2013-01-01 22:02:00,12.0,0.0,30.11,SSW,209,0.0,5.0,59,0.00,,,0.00,,2013-01-02 04:02:00,
2013-01-01 22:12:00,12.0,0.0,30.11,SSW,209,0.0,5.0,59,0.00,,,0.00,,2013-01-02 04:12:00,
2013-01-01 22:22:00,12.0,0.0,30.11,SSW,213,0.0,0.0,59,0.00,,,0.00,,2013-01-02 04:22:00,
2013-01-01 22:32:00,11.0,0.0,30.11,SW,229,0.0,8.0,59,0.00,,,0.00,,2013-01-02 04:32:00,
2013-01-01 22:42:00,11.0,0.0,30.11,SW,229,0.0,8.0,59,0.00,,,0.00,,2013-01-02 04:42:00,
2013-01-01 22:52:00,11.0,0.0,30.11,SW,222,0.0,0.0,59,0.00,,,0.00,,2013-01-02 04:52:00,
2013-01-01 23:03:00,10.0,-1.0,30.11,SW,222,0.0,0.0,59,0.00,,,0.00,,2013-01-02 05:03:00,
2013-01-01 23:12:00,10.0,-1.0,30.11,SW,222,0.0,0.0,59,0.00,,,0.00,,2013-01-02 05:12:00,
2013-01-01 23:22:00,10.0,-1.0,30.11,South,191,0.0,0.0,59,0.00,,,0.00,,2013-01-02 05:22:00,
2013-01-01 23:33:00,9.0,-2.0,30.11,SE,146,5.0,5.0,59,0.00,,,0.00,,2013-01-02 05:33:00,
2013-01-01 23:42:00,9.0,-2.0,30.11,SE,146,5.0,5.0,59,0.00,,,0.00,,2013-01-02 05:42:00,
2013-01-01 23:52:00,9.0,-2.0,30.08,SSW,192,0.0,0.0,59,0.00,,,0.00,,2013-01-02 05:52:00,